Probability
0 0 0 0 0 0 0 0 0 0 0 0 0 0 0 0 0 0 0 0 0 0 0 0 0 0 0 0 0 0 0 0 0 0 0 0 0 0 0 0 0 0 0 0
0 0 0 0 0 0 0 0 0 0 0 0 0 0 0 0 0 0 0 0 0 0 0 0 0 0 0 0 0 0 0 0 0 0 0 0 0 0 0 0 0 0 0 0
0 0 0 0 0 0 0 0 0 0 0 0 0 0 0 0 0 0 0 0 0 0 0 0 0 0 0 0 0 0 0 0 0 0 0 0 0 0 0 0 0 0 0 0
0 0 0 0 0 0 0 0 0 0 0 0 0 0 0 0 0 0 0 0 0 0 0 0 0 0 0 0 0 0 0 0 0 0 0 0 0 0 0 0 0 0 0 0
0 0 0 0 0 0 0 0 0 0 0 0 0 0 0 0 0 0 0 0 0 0 0 0 0 0 0 0 0 0 0 0 0 0 0 0 0 0 0 0 0 0 0 0
0 0 0 0 0 0 0 0 0 0 0 0 0 0 0 0 0 0 0 0 0 0 0 0 0 0 0 0 0 0 0 0 0 0 0 0 0 0 0 0 0 0 0 0
0 0 0 0 0 0 0 0 0 0 0 0 0 0 0 0 0 0 0 0 0 0 0 0 0 0 0 0 0 0 0 0 0 0 0 0 0 0 0 0 0 0 0 0
0 0 0 0 0 0 0 0 0 0 0 0 0 0 0 0 0 0 0 0 0 0 0 0 0 0 0 0 0 0 0 0 0 0 0 0 0 0 0 0 0 0 0 0
0 0 0 0 0 0 0 0 0 0 0 0 0 0 0 0 0 0 0 0 0 0 0 0 0 0 0 0 0 0 0 0 0 0 0 0 0 0 0 0 0 0 0 0
0 0 0 0 0 0 0 0 0 0 0 0 0 0 0 0 0 0 0 0 0 0 0 0 0 0 0 0 0 0 0 0 0 0 0 0 0 0 0 0 0 0 0 0
0 0 0 0 0 0 0 0 0 0 0 0 0 0 0 0 0 0 0 0 0 0 0 0 0 0 0 0 0 0 0 0 0 0 0 0 0 0 0 0 0 0 0 0
0 0 0 0 0 0 0 0 0 0 0 0 0 0 0 0 0 0 0 0 0 0 0 0 0 0 0 0 0 0 0 0 0 0 0 0 0 0 0 0 0 0 0 0
0 0 0 0 0 0 0 0 0 0 0 0 0 0 0 0 0 0 0 0 0 0 0 0 0 0 0 0 0 0 0 0 0 0 0 0 0 0 0 0 0 0 0 0
0 0 0 0 0 0 0 0 0 0 0 0 0 0 0 0 0 0 0 0 0 0 0 0 0 0 0 0 0 0 0 0 0 0 0 0 0 0 0 0 0 0 0 0
0 0 0 0 0 0 0 0 0 0 0 0 0 0 0 0 0 0 0 0 0 0 0 0 0 0 0 0 0 0 0 0 0 0 0 0 0 0 0 0 0 0 0 0
0 0 0 0 0 0 0 0 0 0 0 0 0 0 0 0 0 0 0 0 0 0 0 0 0 0 0 0 0 0 0 0 0 0 0 0 0 0 0 0 0 0 0 0
0 0 0 0 0 0 0 0 0 0 0 0 0 0 0 0 0 0 0 0 0 0 0 0 0 0 0 0 0 0 0 0 0 0 0 0 0 0 0 0 0 0 0 0
0 0 0 0 0 0 0 0 0 0 0 0 0 0 0 0 0 0 0 0 0 0 0 0 0 0 0 0 0 0 0 0 0 0 0 0 0 0 0 0 0 0 0 0
0 0 0 0 0 0 0 0 0 0 0 0 0 0 0 0 0 0 0 0 0 0 0 0 0 0 0 0 0 0 0 0 0 0 0 0 0 0 0 0 0 0 0 0
0 0 0 0 0 0 0 0 0 0 0 0 0 0 0 0 0 0 0 0 0 0 0 0 0 0 0 0 0 0 0 0 0 0 0 0 0 0 0 0 0 0 0 0
0 0 0 0 0 0 0 0 0 0 0 0 0 0 0 0 0 0 0 0 0 0 0 0 0 0 0 0 0 0 0 0 0 0 0 0 0 0 0 0 0 0 0 0
0 0 0 0 0 0 0 0 0 0 0 0 0 0 0 0 0 0 0 0 0 0 0 0 0 0 0 0 0 0 0 0 0 0 0 0 0 0 0 0 0 0 0 0
0 0 0 0 0 0 0 0 0 0 0 0 0 0 0 0 0 0 0 0 0 0 0 0 0 0 0 0 0 0 0 0 0 0 0 0 0 0 0 0 0 0 0 0
0 0 0 0 0 0 0 0 0 0 0 0 0 0 0 0 0 0 0 0 0 0 0 0 0 0 0 0 0 0 0 0 0 0 0 0 0 0 0 0 0 0 0 0
0 0 0 0 0 0 0 0 0 0 0 0 0 0 0 0 0 0 0 0 0 0 0 0 0 0 0 0 0 0 0 0 0 0 0 0 0 0 0 0 0 0 0 0
0 0 0 0 0 0 0 0 0 0 0 0 0 0 0 0 0 0 0 0 0 0 0 0 0 0 0 0 0 0 0 0 0 0 0 0 0 0 0 0 0 0 0 0
0 0 0 0 0 0 0 0 0 0 0 0 0 0 0 0 0 0 0 0 0 0 0 0 0 0 0 0 0 0 0 0 0 0 0 0 0 0 0 0 0 0 0 0
Wind_Speed
9 10 8 10 12 13 14 14 13 12 11 9 7 5 4 4 4 4 5 6 7 7 6 6 6 6 6 7 7 7 8 8 8 8 8 8 9 9 9 9 9 9 9 8
9 10 9 11 14 17 19 18 16 11 14 9 6 3 3 4 5 6 7 8 7 7 7 8 8 8 7 7 7 8 8 8 7 8 8 8 8 8 8 8 8 8 8 9
7 7 6 11 14 17 17 17 18 20 15 4 6 7 7 6 6 7 8 8 8 8 9 9 9 9 9 8 8 8 8 8 8 8 8 8 8 8 8 8 8 8 8 8
5 4 10 8 4 8 13 14 13 10 6 9 10 9 7 7 8 8 7 7 8 8 7 6 6 7 7 8 9 9 8 8 8 9 9 8 8 8 8 7 7 7 7 7
3 5 8 7 3 7 10 12 7 8 6 5 4 4 6 6 7 9 9 8 8 7 7 7 8 9 10 9 9 9 9 9 9 9 10 9 9 8 7 7 6 6 6 7
5 5 7 5 5 4 6 9 3 5 6 4 3 7 10 6 6 7 6 5 4 4 5 7 8 10 11 10 10 9 9 9 8 9 10 10 9 7 6 6 6 6 6 5
7 6 8 5 6 2 6 6 5 5 6 6 10 11 7 5 7 7 6 5 5 6 6 7 10 11 11 10 9 8 8 8 8 8 9 9 8 6 8 7 7 7 6 5
6 8 9 3 3 1 4 7 5 5 6 8 10 9 5 5 6 6 4 4 5 6 6 6 9 11 11 9 8 9 10 10 9 8 8 8 9 8 8 9 8 7 6 5
7 7 4 2 3 4 4 6 7 7 8 8 7 7 6 5 6 5 6 5 5 7 8 6 7 10 12 9 10 11 11 10 9 9 8 8 9 9 7 7 6 5 5 4
6 9 8 7 6 5 6 8 9 9 9 7 7 6 6 4 4 4 5 6 6 9 10 7 6 7 10 11 12 13 13 10 9 10 9 7 6 6 7 6 6 5 5 4
8 8 7 7 4 6 9 11 12 11 8 7 5 5 4 4 4 5 4 5 7 9 10 10 9 10 10 11 13 14 12 10 9 9 9 8 6 5 5 4 6 7 5 5
9 6 6 9 9 8 10 13 12 11 10 7 4 5 3 3 3 4 6 7 8 9 11 11 11 11 10 10 13 15 12 10 8 8 8 8 8 8 10 8 10 10 9 7
12 10 10 11 11 9 10 11 11 10 9 7 4 2 2 2 3 5 7 9 10 11 12 12 12 11 9 10 12 13 13 10 8 8 8 8 8 8 8 8 12 12 11 10
12 10 12 12 12 10 9 10 9 7 6 4 2 0 1 3 5 7 8 8 10 12 12 12 13 11 9 10 12 13 12 11 10 8 8 7 7 7 7 7 5 4 6 8
14 13 14 12 11 10 8 7 6 5 3 3 1 1 3 6 7 7 8 10 12 12 12 12 13 10 9 11 13 13 11 9 8 8 7 7 7 6 6 6 6 4 3 4
12 11 11 11 12 10 7 6 6 6 3 1 0 2 4 6 8 8 9 10 13 13 12 12 12 10 10 12 13 11 9 14 12 9 8 7 7 6 6 5 5 4 3 2
11 12 11 10 11 9 8 7 6 5 3 3 2 4 7 9 10 9 9 8 10 10 10 12 12 10 11 12 12 10 9 11 14 10 7 7 6 6 6 5 4 3 2 2
13 14 13 10 9 8 7 6 5 5 4 4 5 7 8 10 11 11 11 12 13 12 9 9 11 12 11 11 11 10 9 8 8 8 7 6 6 5 5 5 4 3 2 1
13 14 13 12 10 8 7 6 5 5 5 6 7 8 8 8 10 12 12 13 14 12 8 9 17 13 12 12 13 9 10 10 8 7 7 9 7 5 5 4 3 3 2 1
12 12 11 10 9 8 7 6 5 5 6 7 9 10 10 10 11 12 12 9 6 7 10 13 13 11 11 12 13 9 9 10 9 8 7 6 6 5 4 4 3 2 1 1
10 10 10 9 7 6 6 7 8 7 7 8 10 11 12 11 11 11 12 10 7 10 12 16 11 10 9 11 13 9 9 8 8 7 6 6 5 4 4 3 2 1 1 1
7 8 8 8 7 5 5 6 8 9 10 10 11 12 13 13 12 10 9 8 10 14 11 9 9 12 14 14 8 9 8 8 7 6 6 5 5 4 3 2 1 1 1 1
5 6 6 7 8 7 7 7 8 9 11 12 13 14 13 12 10 11 10 7 9 14 11 9 14 20 19 11 8 8 8 8 6 6 5 4 4 3 3 2 1 1 1 1
3 5 6 7 9 10 9 8 9 9 10 10 10 11 12 11 9 7 9 16 17 16 10 15 20 19 16 8 8 8 7 6 6 5 4 4 3 2 2 1 1 1 2 2
4 6 8 10 9 8 10 11 12 12 12 10 11 10 8 7 9 11 11 13 18 16 11 15 19 17 10 8 8 7 6 5 5 5 4 3 2 2 1 1 1 2 2 3
5 6 6 6 7 8 9 10 10 10 11 11 10 9 9 10 12 11 11 12 15 15 11 9 9 11 8 7 7 7 6 5 5 4 3 2 2 1 1 1 2 2 3 3
7 6 7 8 7 7 8 9 10 10 10 12 12 10 11 11 11 11 12 11 10 10 9 8 7 7 7 7 6 6 5 4 3 3 2 2 1 1 2 2 2 3 3 4
Wind_Direction
270 276 247 246 233 217 215 215 218 225 220 223 222 220 223 209 189 183 197 200 199 197 192 182 175 171 165 162 159 157 159 166 172 168 163 159 160 162 162 164 168 168 165 165
269 265 259 255 234 222 223 223 229 230 237 230 227 203 199 194 186 198 209 212 206 199 191 188 183 175 167 164 162 158 162 166 159 153 153 156 157 154 154 157 158 158 163 163
264 272 276 247 219 211 216 221 219 228 231 200 226 220 215 211 204 209 213 210 204 201 199 195 186 173 171 164 155 157 159 157 154 153 154 155 151 150 155 157 153 155 159 160
273 258 235 238 209 214 225 230 226 234 219 195 214 226 222 203 201 215 216 212 211 205 199 189 164 154 148 146 152 156 155 155 154 152 151 148 148 152 152 149 153 155 158 161
232 247 269 278 244 208 214 233 226 234 241 233 240 232 251 229 216 219 215 209 208 199 186 164 156 151 144 147 150 154 159 159 158 153 149 148 151 152 147 145 145 147 152 154
222 240 244 273 299 271 198 242 242 234 240 234 167 217 241 237 234 241 234 216 199 167 153 155 155 147 145 152 156 165 164 158 153 150 149 152 151 144 136 138 138 134 132 141
223 244 265 296 311 103 172 260 297 239 241 220 212 230 251 234 225 225 224 209 174 155 161 164 152 147 147 152 164 158 142 137 138 141 142 140 133 130 131 126 123 123 121 118
202 224 246 336 32 126 288 304 298 267 248 242 246 252 249 229 217 206 198 181 160 152 152 147 150 147 146 154 145 131 129 128 129 129 128 128 124 122 125 128 125 124 120 110
218 236 272 265 253 277 292 307 312 305 290 266 257 255 250 241 219 200 183 172 156 146 137 137 149 148 144 144 135 130 125 124 122 118 116 125 129 129 126 127 128 131 131 130
249 260 275 285 289 297 311 308 308 306 299 282 262 254 246 237 213 188 170 158 147 140 138 139 141 135 132 134 133 127 125 124 123 120 115 111 114 124 128 133 132 133 136 137
251 268 288 278 275 301 311 313 314 314 303 284 264 261 241 228 201 180 163 150 150 149 143 139 133 125 128 133 130 124 122 123 120 118 119 111 102 105 119 129 145 144 149 149
243 241 249 275 286 296 304 303 303 309 309 303 270 252 250 220 187 167 154 144 140 136 134 133 130 127 130 133 131 128 126 126 124 122 119 117 111 91 79 96 105 108 117 121
248 261 261 271 279 282 284 288 295 294 288 294 293 257 224 196 161 147 143 143 142 137 133 131 128 127 130 131 129 128 131 131 127 126 126 125 123 120 111 85 84 92 99 104
247 256 267 267 271 280 281 287 290 293 293 293 293 319 128 128 131 136 139 136 129 125 125 126 124 124 128 126 122 121 123 125 125 125 125 124 123 123 124 125 115 84 78 91
246 241 250 265 272 276 277 282 287 291 296 321 334 121 138 136 133 127 122 122 119 118 121 123 122 123 126 123 121 121 121 121 119 117 116 116 117 116 115 116 117 114 96 83
245 246 247 253 260 267 268 263 267 272 268 271 227 118 120 117 114 112 116 126 128 129 130 126 123 126 125 121 118 115 116 123 121 119 117 117 117 117 117 117 117 117 117 115
236 242 241 244 248 256 255 249 247 248 233 205 166 132 123 119 114 111 107 103 107 111 117 121 123 122 120 120 119 118 117 120 119 115 115 118 119 120 122 122 122 120 120 126
231 238 240 237 241 248 250 244 234 220 203 181 147 139 138 138 133 127 120 113 104 95 94 109 117 116 114 115 115 117 117 117 117 117 116 116 116 117 119 121 123 121 110 91
232 234 237 236 235 239 237 227 217 202 176 156 149 146 139 132 129 126 125 122 121 117 115 120 120 113 113 117 116 115 116 116 113 112 113 119 113 112 115 118 120 121 123 115
234 232 233 234 231 225 220 208 187 176 165 148 139 133 129 129 129 127 120 109 108 121 127 123 116 112 113 117 115 114 116 118 118 118 115 116 118 118 118 120 123 128 136 149
234 229 224 221 219 212 200 182 169 163 155 150 146 142 136 130 129 127 122 112 103 118 122 121 116 116 116 120 114 114 115 117 119 121 122 122 122 122 122 124 127 138 156 181
230 217 210 201 188 179 168 159 154 148 144 139 132 131 130 128 123 109 98 114 128 127 120 117 117 122 123 118 111 113 114 116 117 118 120 124 128 130 132 133 140 163 196 228
220 201 188 177 164 149 132 132 137 139 139 139 139 140 137 133 133 129 120 123 128 125 119 120 126 124 118 110 111 112 113 115 116 119 123 127 131 135 141 149 168 197 229 254
184 164 153 143 134 129 126 124 120 118 118 119 122 128 129 124 109 96 113 127 127 121 116 124 123 120 113 108 109 110 112 114 115 118 121 123 126 133 147 166 199 230 247 261
141 135 134 135 134 132 129 122 116 114 112 109 108 106 105 109 116 119 120 124 125 118 115 120 119 115 109 109 110 112 113 119 125 126 127 130 138 148 168 196 222 246 260 266
121 126 127 126 128 130 131 129 126 125 124 119 111 106 104 105 109 113 114 115 117 114 111 110 111 108 106 107 108 110 112 114 109 111 125 136 150 165 194 222 245 254 262 268
102 107 111 112 114 120 123 124 124 126 126 124 119 115 114 113 113 113 113 113 111 108 106 105 105 105 106 107 108 108 109 111 115 123 133 145 167 197 224 242 255 263 269 273